N14CK -KASE

Flight info

Callsign N14CK
Flight time N/A
Altitude VFR
Route
Aircraft M20/L-VGD/C

Departure

Time N/A
Airport -

Arrival

Time 2026-04-22 00:09
Airport Aspen-Pitkin County Airport (Sardy Field) (KASE)
Time Latitude Longitude Altitude Speed Heading
2026-04-21 23:59 39.10768 -106.58015 14192 ft 162 kts 301°
2026-04-21 23:59 39.11395 -106.59176 14270 ft 153 kts 300°
2026-04-21 23:59 39.11957 -106.60288 14147 ft 148 kts 298°
2026-04-22 00:00 39.12374 -106.61478 14091 ft 142 kts 283°
2026-04-22 00:00 39.12568 -106.62707 13851 ft 142 kts 271°
2026-04-22 00:00 39.12598 -106.63992 13611 ft 141 kts 266°
2026-04-22 00:00 39.12564 -106.65224 13447 ft 134 kts 263°
2026-04-22 00:01 39.12493 -106.66387 13316 ft 127 kts 261°
2026-04-22 00:01 39.12429 -106.67531 13091 ft 132 kts 263°
2026-04-22 00:01 39.12366 -106.68738 12847 ft 138 kts 265°
2026-04-22 00:01 39.12314 -106.69981 12668 ft 140 kts 266°
2026-04-22 00:02 39.12308 -106.71235 12499 ft 143 kts 270°
2026-04-22 00:02 39.12354 -106.72557 12418 ft 149 kts 272°
2026-04-22 00:02 39.12522 -106.73876 12485 ft 149 kts 282°
2026-04-22 00:02 39.12846 -106.75155 12265 ft 154 kts 294°
2026-04-22 00:03 39.13454 -106.76290 11972 ft 156 kts 310°
2026-04-22 00:03 39.14344 -106.77130 11768 ft 163 kts 325°
2026-04-22 00:03 39.15299 -106.77839 11467 ft 146 kts 329°
2026-04-22 00:03 39.16124 -106.78433 11058 ft 130 kts 326°
2026-04-22 00:04 39.16905 -106.79040 10754 ft 136 kts 323°
2026-04-22 00:04 39.17696 -106.79732 10716 ft 137 kts 320°
2026-04-22 00:04 39.18489 -106.80450 10751 ft 140 kts 319°
2026-04-22 00:04 39.19276 -106.81185 10835 ft 138 kts 318°
2026-04-22 00:05 39.20004 -106.82006 10715 ft 142 kts 304°
2026-04-22 00:05 39.20585 -106.83116 10441 ft 152 kts 305°
2026-04-22 00:05 39.21397 -106.83995 10250 ft 156 kts 328°
2026-04-22 00:05 39.22442 -106.84376 10100 ft 154 kts 345°
2026-04-22 00:06 39.23487 -106.84541 9940 ft 144 kts 348°
2026-04-22 00:06 39.24460 -106.84732 9593 ft 137 kts 347°
2026-04-22 00:06 39.25339 -106.84917 9490 ft 121 kts 341°
2026-04-22 00:06 39.26079 -106.85248 9498 ft 109 kts 306°
2026-04-22 00:07 39.26280 -106.86149 9404 ft 109 kts 266°
2026-04-22 00:07 39.26195 -106.87110 9265 ft 107 kts 255°
2026-04-22 00:07 39.25897 -106.87915 8629 ft 93 kts 223°
2026-04-22 00:07 39.25326 -106.88121 8232 ft 83 kts 183°
2026-04-22 00:08 39.24970 -106.88041 7964 ft 75 kts 178°
2026-04-22 00:08 39.24278 -106.87772 7701 ft 77 kts 170°
2026-04-22 00:08 39.23768 -106.87566 7575 ft 78 kts 168°
2026-04-22 00:08 39.23268 -106.87330 7719 ft 77 kts 171°
2026-04-22 00:09 39.22927 -106.87169 7708 ft 77 kts 171°
2026-04-22 00:09 39.22569 -106.86990 7732 ft 10 kts 160°
2026-04-22 00:09 39.22480 -106.86961 7738 ft 19 kts 166°
2026-04-22 00:09 39.22321 -106.86892 7748 ft 29 kts 159°
2026-04-22 00:10 39.22126 -106.86795 7764 ft 27 kts 160°
2026-04-22 00:10 39.22031 -106.86678 7773 ft 18 kts 70°
2026-04-22 00:10 39.21984 -106.86607 7778 ft 11 kts 162°
2026-04-22 00:10 39.21919 -106.86575 7783 ft 10 kts 160°
2026-04-22 00:11 39.21850 -106.86540 7788 ft 12 kts 156°
2026-04-22 00:11 39.21771 -106.86504 7787 ft 13 kts 160°
2026-04-22 00:11 39.21685 -106.86463 7801 ft 14 kts 160°
2026-04-22 00:11 39.21594 -106.86421 7807 ft 14 kts 159°
2026-04-22 00:12 39.21503 -106.86376 7814 ft 13 kts 160°
2026-04-22 00:12 39.21440 -106.86346 7818 ft 2 kts 159°
2026-04-22 00:12 39.21419 -106.86336 7820 ft 9 kts 159°
2026-04-22 00:12 39.21343 -106.86300 7826 ft 13 kts 159°
2026-04-22 00:13 39.21294 -106.86277 7829 ft 5 kts 159°
2026-04-22 00:13 39.21248 -106.86256 7832 ft 7 kts 162°
2026-04-22 00:13 39.21216 -106.86250 7834 ft 0 kts 204°
2026-04-22 00:17 39.21210 -106.86254 7835 ft 5 kts 204°
2026-04-22 00:17 39.21181 -106.86338 7835 ft 15 kts 308°
2026-04-22 00:17 39.21350 -106.86428 7824 ft 44 kts 339°
2026-04-22 00:17 39.21743 -106.86616 7787 ft 75 kts 339°
2026-04-22 00:18 39.22295 -106.86893 7784 ft 92 kts 333°
2026-04-22 00:18 39.22964 -106.87017 7886 ft 103 kts
2026-04-22 00:18 39.23681 -106.86947 8185 ft 99 kts 359°
2026-04-22 00:18 39.24404 -106.86918 8336 ft 106 kts
2026-04-22 00:19 39.25059 -106.87210 8582 ft 102 kts 320°
2026-04-22 00:19 39.25673 -106.87686 8650 ft 102 kts 321°
2026-04-22 00:19 39.26293 -106.88169 8848 ft 106 kts 321°
2026-04-22 00:19 39.26947 -106.88659 9009 ft 112 kts 324°
2026-04-22 00:20 39.27602 -106.89190 9185 ft 111 kts 319°
2026-04-22 00:20 39.28244 -106.89745 9289 ft 113 kts 319°
2026-04-22 00:20 39.28898 -106.90330 9436 ft 116 kts 318°
2026-04-22 00:20 39.29548 -106.90921 9699 ft 111 kts 318°
2026-04-22 00:21 39.30208 -106.91480 9890 ft 115 kts 321°
2026-04-22 00:21 39.30898 -106.92080 10088 ft 124 kts 320°
2026-04-22 00:21 39.31537 -106.92780 10337 ft 117 kts 301°
2026-04-22 00:21 39.31974 -106.93667 10427 ft 127 kts 295°
2026-04-22 00:22 39.32443 -106.94738 10347 ft 144 kts 293°